Hourly Weather Aalen

Today, 24 October, Saturday

Time Temperature Precipitation Wind Pressure Humidity
00:00 +12°C° 0.2 mm 3 mps 722 mmHg 93%
01:00 +12°C° 0.2 mm 4 mps 722 mmHg 93%
02:00 +11°C° 0 mm 4 mps 722 mmHg 93%
03:00 +11°C° 0 mm 3 mps 722 mmHg 94%
04:00 +11°C° 0 mm 3 mps 722 mmHg 95%
05:00 +10°C° 0 mm 3 mps 722 mmHg 95%
06:00 +10°C° 0 mm 2 mps 722 mmHg 96%
07:00 +9°C° 0 mm 2 mps 722 mmHg 96%
08:00 +10°C° 0 mm 2 mps 723 mmHg 92%
09:00 +12°C° 0 mm 3 mps 723 mmHg 87%
10:00 +13°C° 0 mm 3 mps 724 mmHg 83%
11:00 +13°C° 0.1 mm 3 mps 724 mmHg 80%
12:00 +14°C° 0.1 mm 3 mps 723 mmHg 77%
13:00 +16°C° 0.1 mm 3 mps 723 mmHg 73%
14:00 +15°C° 0 mm 2 mps 723 mmHg 75%
15:00 +15°C° 0 mm 2 mps 723 mmHg 76%
16:00 +15°C° 0 mm 1 mps 723 mmHg 78%
17:00 +13°C° 0 mm 1 mps 722 mmHg 81%
18:00 +12°C° 0 mm 1 mps 722 mmHg 85%
19:00 +11°C° 0 mm 1 mps 722 mmHg 89%
20:00 +10°C° 0 mm 1 mps 722 mmHg 90%
21:00 +10°C° 0 mm 1 mps 722 mmHg 91%
22:00 +10°C° 0 mm 1 mps 722 mmHg 92%
23:00 +8°C° 0 mm 2 mps 721 mmHg 92%

Tomorrow, 25 October, Sunday

Time Temperature Precipitation Wind Pressure Humidity
00:00 +8°C° 0 mm 2 mps 721 mmHg 93%
01:00 +8°C° 0 mm 2 mps 720 mmHg 94%
02:00 +8°C° 0 mm 2 mps 720 mmHg 94%
03:00 +7°C° 0 mm 2 mps 720 mmHg 94%
04:00 +7°C° 0 mm 2 mps 719 mmHg 94%
05:00 +7°C° 0 mm 2 mps 719 mmHg 94%
06:00 +7°C° 0 mm 2 mps 719 mmHg 93%
07:00 +7°C° 0 mm 2 mps 719 mmHg 93%
08:00 +9°C° 0 mm 3 mps 719 mmHg 88%
09:00 +10°C° 0 mm 3 mps 719 mmHg 82%
10:00 +12°C° 0 mm 3 mps 719 mmHg 77%
11:00 +13°C° 0 mm 3 mps 718 mmHg 73%
12:00 +14°C° 0 mm 3 mps 718 mmHg 70%
13:00 +16°C° 0 mm 3 mps 717 mmHg 66%
14:00 +16°C° 0 mm 2 mps 717 mmHg 70%
15:00 +15°C° 0 mm 2 mps 716 mmHg 75%
16:00 +15°C° 0 mm 2 mps 716 mmHg 79%
17:00 +14°C° 0 mm 2 mps 716 mmHg 81%
18:00 +13°C° 0 mm 2 mps 716 mmHg 82%
19:00 +12°C° 0 mm 2 mps 715 mmHg 84%
20:00 +11°C° 0 mm 1 mps 715 mmHg 85%
21:00 +10°C° 0 mm 1 mps 715 mmHg 86%
22:00 +10°C° 0 mm 1 mps 715 mmHg 87%
23:00 +9°C° 0 mm 2 mps 715 mmHg 88%

Day after tomorrow, 26 October, Monday

Time Temperature Precipitation Wind Pressure Humidity
00:00 +8°C° 0 mm 3 mps 715 mmHg 89%
01:00 +8°C° 0 mm 3 mps 715 mmHg 90%
02:00 +8°C° 0.1 mm 3 mps 715 mmHg 91%
03:00 +8°C° 0.1 mm 3 mps 715 mmHg 92%
04:00 +8°C° 0.1 mm 3 mps 715 mmHg 94%
05:00 +8°C° 0.6 mm 3 mps 715 mmHg 94%
06:00 +8°C° 0.6 mm 3 mps 715 mmHg 95%
07:00 +8°C° 0.6 mm 2 mps 715 mmHg 96%
08:00 +8°C° 0.9 mm 2 mps 715 mmHg 95%
09:00 +8°C° 0.9 mm 2 mps 716 mmHg 93%
10:00 +8°C° 0.9 mm 2 mps 716 mmHg 92%
11:00 +8°C° 0.6 mm 2 mps 716 mmHg 92%
12:00 +8°C° 0.6 mm 2 mps 716 mmHg 92%
13:00 +9°C° 0.6 mm 1 mps 716 mmHg 92%
14:00 +9°C° 0.4 mm 1 mps 716 mmHg 93%
15:00 +9°C° 0.4 mm 1 mps 716 mmHg 93%
16:00 +9°C° 0.4 mm 1 mps 715 mmHg 94%
17:00 +9°C° 0.8 mm 1 mps 716 mmHg 94%
18:00 +8°C° 0.8 mm 1 mps 716 mmHg 95%
19:00 +8°C° 0.8 mm 1 mps 716 mmHg 96%
20:00 +8°C° 0.7 mm 1 mps 716 mmHg 95%
21:00 +8°C° 0.7 mm 1 mps 717 mmHg 95%
22:00 +8°C° 0.7 mm 1 mps 717 mmHg 95%
23:00 +8°C° 0.1 mm 1 mps 717 mmHg 94%

, 27 October, Tuesday

Time Temperature Precipitation Wind Pressure Humidity
00:00 +8°C° 0.1 mm 1 mps 717 mmHg 94%
01:00 +7°C° 0.1 mm 1 mps 717 mmHg 93%
02:00 +7°C° 0 mm 1 mps 717 mmHg 93%
03:00 +7°C° 0 mm 1 mps 717 mmHg 93%
04:00 +7°C° 0 mm 1 mps 717 mmHg 93%
05:00 +6°C° 0 mm 1 mps 717 mmHg 93%
06:00 +6°C° 0 mm 1 mps 717 mmHg 93%
07:00 +5°C° 0 mm 2 mps 718 mmHg 94%
08:00 +6°C° 0 mm 2 mps 718 mmHg 90%
09:00 +7°C° 0 mm 2 mps 718 mmHg 87%
10:00 +8°C° 0 mm 2 mps 719 mmHg 84%
11:00 +9°C° 0 mm 2 mps 719 mmHg 80%
12:00 +10°C° 0 mm 2 mps 719 mmHg 76%
13:00 +10°C° 0 mm 2 mps 719 mmHg 72%
14:00 +10°C° 0 mm 2 mps 719 mmHg 73%
15:00 +11°C° 0 mm 1 mps 719 mmHg 75%
16:00 +11°C° 0 mm 1 mps 719 mmHg 77%
17:00 +9°C° 0 mm 1 mps 719 mmHg 81%
18:00 +8°C° 0 mm 1 mps 719 mmHg 86%
19:00 +7°C° 0 mm 1 mps 720 mmHg 90%
20:00 +6°C° 0 mm 1 mps 720 mmHg 91%
21:00 +5°C° 0 mm 2 mps 720 mmHg 92%
22:00 +5°C° 0 mm 2 mps 720 mmHg 93%
23:00 +4°C° 0 mm 2 mps 720 mmHg 93%

27 October, Tuesday

Time Temperature Precipitation Wind Pressure Humidity
00:00 +8°C° 0.1 mm 1 mps 717 mmHg 94%
01:00 +7°C° 0.1 mm 1 mps 717 mmHg 93%
02:00 +7°C° 0 mm 1 mps 717 mmHg 93%
03:00 +7°C° 0 mm 1 mps 717 mmHg 93%
04:00 +7°C° 0 mm 1 mps 717 mmHg 93%
05:00 +6°C° 0 mm 1 mps 717 mmHg 93%
06:00 +6°C° 0 mm 1 mps 717 mmHg 93%
07:00 +5°C° 0 mm 2 mps 718 mmHg 94%
08:00 +6°C° 0 mm 2 mps 718 mmHg 90%
09:00 +7°C° 0 mm 2 mps 718 mmHg 87%
10:00 +8°C° 0 mm 2 mps 719 mmHg 84%
11:00 +9°C° 0 mm 2 mps 719 mmHg 80%
12:00 +10°C° 0 mm 2 mps 719 mmHg 76%
13:00 +10°C° 0 mm 2 mps 719 mmHg 72%
14:00 +10°C° 0 mm 2 mps 719 mmHg 73%
15:00 +11°C° 0 mm 1 mps 719 mmHg 75%
16:00 +11°C° 0 mm 1 mps 719 mmHg 77%
17:00 +9°C° 0 mm 1 mps 719 mmHg 81%
18:00 +8°C° 0 mm 1 mps 719 mmHg 86%
19:00 +7°C° 0 mm 1 mps 720 mmHg 90%
20:00 +6°C° 0 mm 1 mps 720 mmHg 91%
21:00 +5°C° 0 mm 2 mps 720 mmHg 92%
22:00 +5°C° 0 mm 2 mps 720 mmHg 93%
23:00 +4°C° 0 mm 2 mps 720 mmHg 93%

28 October, Wednesday

Time Temperature Precipitation Wind Pressure Humidity
00:00 +4°C° 0 mm 2 mps 720 mmHg 93%
01:00 +4°C° 0 mm 2 mps 720 mmHg 93%
02:00 +4°C° 0 mm 2 mps 720 mmHg 91%
03:00 +4°C° 0 mm 2 mps 719 mmHg 90%
04:00 +3°C° 0 mm 2 mps 719 mmHg 89%
05:00 +3°C° 0 mm 2 mps 719 mmHg 87%
06:00 +2°C° 0 mm 3 mps 719 mmHg 85%
07:00 +2°C° 0 mm 3 mps 719 mmHg 83%
08:00 +3°C° 0.2 mm 3 mps 719 mmHg 84%
09:00 +4°C° 0.2 mm 3 mps 719 mmHg 85%
10:00 +4°C° 0.2 mm 4 mps 719 mmHg 86%
11:00 +6°C° 0 mm 4 mps 719 mmHg 82%
12:00 +8°C° 0 mm 4 mps 720 mmHg 77%
13:00 +11°C° 0 mm 4 mps 720 mmHg 73%
14:00 +11°C° 0 mm 4 mps 720 mmHg 74%
15:00 +11°C° 0 mm 4 mps 720 mmHg 75%
16:00 +11°C° 0 mm 3 mps 719 mmHg 76%
17:00 +10°C° 0 mm 3 mps 720 mmHg 79%
18:00 +9°C° 0 mm 3 mps 720 mmHg 83%
19:00 +8°C° 0 mm 3 mps 721 mmHg 86%
20:00 +8°C° 0.1 mm 3 mps 721 mmHg 87%
21:00 +8°C° 0.1 mm 3 mps 721 mmHg 88%
22:00 +7°C° 0.1 mm 4 mps 721 mmHg 89%
23:00 +7°C° 0.1 mm 4 mps 722 mmHg 89%

29 October, Thursday

Time Temperature Precipitation Wind Pressure Humidity
00:00 +7°C° 0.1 mm 4 mps 722 mmHg 90%
01:00 +8°C° 0.1 mm 4 mps 722 mmHg 90%
02:00 +7°C° 0.2 mm 4 mps 722 mmHg 91%
03:00 +7°C° 0.2 mm 4 mps 722 mmHg 91%
04:00 +7°C° 0.2 mm 4 mps 723 mmHg 92%
05:00 +7°C° 0 mm 4 mps 723 mmHg 91%
06:00 +7°C° 0 mm 4 mps 723 mmHg 90%
07:00 +6°C° 0 mm 4 mps 724 mmHg 90%
08:00 +7°C° 0 mm 4 mps 724 mmHg 87%
09:00 +8°C° 0 mm 4 mps 725 mmHg 84%
10:00 +9°C° 0 mm 5 mps 725 mmHg 81%
11:00 +10°C° 0.1 mm 5 mps 726 mmHg 79%
12:00 +10°C° 0.1 mm 5 mps 726 mmHg 77%
13:00 +12°C° 0.1 mm 5 mps 726 mmHg 75%
14:00 +12°C° 0 mm 4 mps 726 mmHg 77%
15:00 +11°C° 0 mm 3 mps 726 mmHg 79%
16:00 +12°C° 0 mm 2 mps 726 mmHg 81%
17:00 +10°C° 0 mm 2 mps 727 mmHg 84%
18:00 +9°C° 0 mm 2 mps 727 mmHg 87%
19:00 +8°C° 0 mm 2 mps 728 mmHg 90%
20:00 +8°C° 0 mm 2 mps 728 mmHg 90%
21:00 +7°C° 0 mm 2 mps 728 mmHg 89%
22:00 +7°C° 0 mm 2 mps 729 mmHg 89%
23:00 +7°C° 0 mm 2 mps 729 mmHg 88%
Show more